Total_Precipitation_Accumulation
0.00 0.01 0.02 0.02 0.02 0.03 0.05 0.06 0.11 0.14 0.12 0.15 0.31 0.49 0.50 0.64 0.89 1.10 1.38 1.68 1.94 2.23 2.62 2.98 2.97 3.13 3.32 3.74 3.93 4.01 4.22 4.18 3.97 3.64 3.25 3.05 2.88 2.74 2.58 2.42 2.23 2.17 2.17 2.23
0.01 0.03 0.01 0.01 0.02 0.03 0.06 0.09 0.13 0.14 0.12 0.14 0.28 0.46 0.55 0.84 1.13 1.14 1.22 1.37 1.59 2.02 2.40 2.66 2.67 2.68 2.97 3.51 3.84 3.85 3.60 3.54 3.49 3.30 3.12 3.06 3.13 2.81 2.52 2.35 2.12 1.98 2.02 2.09
0.03 0.03 0.02 0.02 0.02 0.02 0.04 0.06 0.10 0.15 0.14 0.19 0.28 0.57 0.73 0.95 1.08 1.11 1.18 1.26 1.41 1.73 2.06 2.31 2.28 2.33 2.53 2.61 2.80 2.89 2.93 2.79 2.66 2.59 2.60 2.64 2.73 2.47 2.20 2.09 1.99 1.83 1.76 1.72
0.03 0.03 0.03 0.04 0.04 0.04 0.06 0.07 0.05 0.07 0.14 0.25 0.37 0.86 1.03 0.96 1.03 1.15 1.15 1.16 1.38 1.68 1.64 1.72 1.82 1.93 2.14 2.20 2.24 2.25 2.23 2.26 2.18 2.16 2.16 2.08 2.04 1.92 1.84 1.81 1.72 1.66 1.58 1.52
0.05 0.04 0.03 0.05 0.05 0.04 0.05 0.05 0.05 0.09 0.17 0.28 0.37 0.67 0.99 1.21 1.30 1.12 1.04 0.99 1.20 1.32 1.20 1.21 1.33 1.36 1.47 1.53 1.68 1.76 1.79 1.81 1.80 1.79 1.76 1.73 1.67 1.66 1.63 1.53 1.44 1.37 1.33 1.37
0.05 0.05 0.04 0.04 0.04 0.04 0.04 0.06 0.12 0.23 0.40 0.62 0.51 0.62 0.98 1.24 1.37 1.08 0.98 0.93 1.06 1.02 0.97 1.06 1.12 1.08 1.10 1.23 1.38 1.48 1.55 1.55 1.53 1.53 1.52 1.48 1.43 1.41 1.37 1.30 1.27 1.23 1.18 1.11
0.12 0.12 0.10 0.06 0.05 0.06 0.06 0.12 0.44 0.78 1.05 1.06 0.66 0.69 1.01 1.00 0.98 0.92 0.88 0.94 0.98 0.89 0.80 0.78 0.81 0.87 0.92 0.98 1.05 1.10 1.18 1.22 1.14 1.12 1.16 1.17 1.15 1.12 1.09 1.06 0.99 0.92 0.82 0.79
0.17 0.24 0.15 0.09 0.09 0.09 0.10 0.15 0.49 0.71 0.73 0.82 0.70 0.95 1.28 1.00 0.90 0.81 0.82 0.91 0.88 0.73 0.64 0.61 0.60 0.63 0.68 0.71 0.71 0.76 0.85 0.93 0.95 0.93 0.92 0.85 0.80 0.80 0.77 0.80 0.77 0.71 0.64 0.61
0.10 0.11 0.08 0.08 0.09 0.11 0.15 0.17 0.23 0.43 0.44 0.58 0.73 1.01 1.16 0.88 0.81 0.87 0.97 0.97 0.88 0.67 0.53 0.47 0.46 0.46 0.47 0.49 0.54 0.59 0.68 0.75 0.80 0.80 0.74 0.67 0.63 0.62 0.60 0.61 0.64 0.62 0.65 0.58
0.06 0.05 0.06 0.07 0.09 0.12 0.15 0.15 0.19 0.35 0.47 0.59 0.67 0.95 1.18 1.11 1.03 0.95 1.01 0.86 0.62 0.47 0.37 0.34 0.31 0.31 0.32 0.35 0.44 0.52 0.57 0.57 0.59 0.61 0.59 0.49 0.50 0.52 0.51 0.50 0.49 0.49 0.51 0.52
0.05 0.04 0.06 0.09 0.12 0.14 0.19 0.21 0.28 0.39 0.40 0.55 0.74 0.85 0.81 0.79 0.87 0.92 0.85 0.66 0.44 0.33 0.25 0.23 0.24 0.26 0.29 0.29 0.37 0.45 0.52 0.57 0.57 0.56 0.55 0.46 0.41 0.39 0.38 0.39 0.39 0.42 0.43 0.46
0.07 0.06 0.10 0.16 0.18 0.17 0.16 0.19 0.27 0.41 0.38 0.42 0.56 0.61 0.40 0.41 0.47 0.51 0.47 0.38 0.32 0.26 0.22 0.24 0.27 0.28 0.28 0.30 0.36 0.44 0.50 0.55 0.58 0.60 0.61 0.56 0.49 0.44 0.41 0.38 0.35 0.34 0.36 0.40
0.10 0.11 0.16 0.36 0.47 0.29 0.18 0.16 0.19 0.24 0.26 0.27 0.43 0.50 0.31 0.33 0.39 0.46 0.54 0.55 0.48 0.39 0.27 0.24 0.26 0.28 0.29 0.33 0.40 0.51 0.58 0.58 0.60 0.64 0.72 0.71 0.58 0.53 0.51 0.45 0.39 0.37 0.36 0.35
0.11 0.14 0.18 0.38 0.49 0.37 0.28 0.22 0.18 0.22 0.30 0.27 0.28 0.36 0.33 0.34 0.39 0.46 0.52 0.52 0.41 0.31 0.25 0.22 0.25 0.29 0.32 0.34 0.33 0.37 0.42 0.43 0.49 0.50 0.59 0.70 0.67 0.55 0.42 0.35 0.37 0.38 0.39 0.40
0.09 0.11 0.12 0.14 0.20 0.27 0.29 0.25 0.19 0.17 0.21 0.32 0.28 0.28 0.31 0.34 0.30 0.33 0.38 0.33 0.26 0.22 0.20 0.20 0.22 0.26 0.31 0.29 0.26 0.24 0.21 0.21 0.26 0.30 0.37 0.47 0.42 0.37 0.35 0.33 0.27 0.25 0.29 0.34
0.15 0.15 0.14 0.12 0.15 0.19 0.22 0.23 0.17 0.12 0.11 0.14 0.21 0.30 0.31 0.32 0.33 0.32 0.31 0.28 0.22 0.20 0.17 0.16 0.17 0.20 0.22 0.19 0.14 0.10 0.11 0.14 0.22 0.28 0.32 0.39 0.39 0.32 0.27 0.25 0.20 0.20 0.25 0.32
0.30 0.25 0.22 0.18 0.16 0.22 0.25 0.21 0.16 0.11 0.09 0.10 0.23 0.38 0.30 0.29 0.31 0.30 0.29 0.26 0.19 0.14 0.12 0.11 0.10 0.08 0.08 0.09 0.07 0.07 0.08 0.10 0.19 0.28 0.36 0.42 0.46 0.46 0.36 0.24 0.22 0.24 0.31 0.39
0.34 0.36 0.31 0.24 0.29 0.42 0.27 0.17 0.16 0.17 0.14 0.14 0.17 0.23 0.23 0.23 0.22 0.19 0.17 0.16 0.15 0.14 0.11 0.09 0.09 0.08 0.09 0.09 0.09 0.11 0.11 0.12 0.18 0.28 0.35 0.38 0.43 0.45 0.43 0.40 0.37 0.41 0.49 0.54
0.25 0.36 0.35 0.30 0.35 0.31 0.25 0.23 0.24 0.28 0.26 0.24 0.27 0.20 0.20 0.19 0.16 0.19 0.14 0.15 0.14 0.15 0.15 0.13 0.13 0.14 0.15 0.15 0.18 0.21 0.20 0.23 0.28 0.35 0.44 0.45 0.48 0.50 0.48 0.48 0.52 0.57 0.62 0.61
0.30 0.38 0.46 0.41 0.45 0.43 0.38 0.37 0.33 0.34 0.48 0.37 0.37 0.37 0.33 0.29 0.31 0.28 0.17 0.13 0.16 0.17 0.19 0.18 0.16 0.18 0.21 0.22 0.26 0.30 0.35 0.39 0.45 0.54 0.61 0.61 0.65 0.70 0.68 0.71 0.74 0.73 0.73 0.67
0.62 0.61 0.56 0.55 0.56 0.49 0.43 0.44 0.39 0.60 0.68 0.40 0.37 0.41 0.43 0.40 0.39 0.28 0.20 0.16 0.19 0.16 0.16 0.19 0.24 0.24 0.27 0.30 0.36 0.44 0.49 0.51 0.55 0.59 0.68 0.76 0.85 0.96 1.02 1.08 1.01 0.97 0.95 0.90
0.67 0.76 0.76 0.77 0.81 0.70 0.47 0.48 0.64 0.74 0.58 0.55 0.45 0.40 0.39 0.36 0.37 0.31 0.24 0.21 0.17 0.20 0.21 0.23 0.28 0.28 0.31 0.35 0.43 0.52 0.56 0.61 0.71 0.78 0.89 0.98 1.07 1.10 1.16 1.42 1.45 1.47 1.39 1.21
0.66 0.75 0.78 0.78 0.81 0.64 0.53 0.62 0.64 0.64 0.68 0.65 0.54 0.39 0.38 0.35 0.32 0.30 0.28 0.24 0.19 0.19 0.23 0.25 0.31 0.34 0.40 0.47 0.62 0.77 0.74 0.77 0.86 0.94 1.03 1.08 1.13 1.20 1.30 1.45 1.52 1.55 1.50 1.34
0.60 0.56 0.66 0.78 0.82 0.72 0.58 0.53 0.60 0.60 0.57 0.61 0.55 0.50 0.53 0.44 0.35 0.30 0.28 0.25 0.24 0.23 0.25 0.28 0.36 0.46 0.59 0.69 0.81 0.94 0.90 0.92 1.01 1.03 1.04 1.08 1.16 1.20 1.27 1.43 1.44 1.40 1.34 1.32
0.47 0.59 0.74 0.87 0.82 0.74 0.66 0.67 0.76 0.74 0.64 0.64 0.55 0.49 0.55 0.49 0.40 0.36 0.32 0.32 0.32 0.34 0.36 0.37 0.44 0.58 0.73 0.86 0.94 0.99 1.01 1.07 1.15 1.15 1.14 1.19 1.25 1.28 1.32 1.38 1.44 1.38 1.29 1.19
0.44 0.62 0.79 0.89 0.83 0.90 0.88 0.78 0.82 0.83 0.68 0.65 0.60 0.55 0.48 0.46 0.45 0.41 0.38 0.35 0.34 0.37 0.38 0.41 0.49 0.61 0.76 0.89 1.01 1.07 1.13 1.23 1.30 1.31 1.23 1.25 1.29 1.33 1.38 1.36 1.25 1.10 0.98 0.84